FW8496 Weather Reports


Display with metric or nautical units.
time (UTC)temp
F
wind
direction
speed
MPH
gust
MPH
rain 1hr
in
rain 24hr
in
rain mn
in
humidity
%
barometer
mb
20260905183110 84 305 4.0 13.0 0.00 0.00 0.00 34 1024.2
20260905182542 83 295 5.0 15.0 0.00 0.00 0.00 33 1024.2
20260905182045 83 319 5.0 15.0 0.00 0.00 0.00 34 1024.3
20260905181552 83 326 5.0 15.0 0.00 0.00 0.00 35 1024.4
20260905181041 82 323 6.0 12.0 0.00 0.00 0.00 36 1024.5
20260905180542 81 352 4.0 12.0 0.00 0.00 0.00 37 1024.5
20260905180105 81 333 3.0 15.0 0.00 0.00 0.00 37 1024.7
20260905175542 81 328 5.0 15.0 0.00 0.00 0.00 37 1024.8
20260905175040 80 323 8.0 15.0 0.00 0.00 0.00 37 1024.8
20260905174555 80 33 3.0 12.0 0.00 0.00 0.00 39 1024.9
20260905174042 80 352 7.0 13.0 0.00 0.00 0.00 39 1024.9
20260905173541 80 360 4.0 13.0 0.00 0.00 0.00 39 1024.9
20260905173051 80 323 4.0 10.0 0.00 0.00 0.00 40 1024.9
20260905172542 79 309 5.0 14.0 0.00 0.00 0.00 40 1024.9
20260905172042 79 317 5.0 14.0 0.00 0.00 0.00 41 1024.9
20260905171603 79 319 5.0 14.0 0.00 0.00 0.00 41 1025.0
20260905171041 78 315 4.0 14.0 0.00 0.00 0.00 43 1025.1
20260905170541 77 302 7.0 14.0 0.00 0.00 0.00 43 1024.9
20260905170109 77 37 6.0 13.0 0.00 0.00 0.00 45 1024.8
20260905165544 76 355 6.0 15.0 0.00 0.00 0.00 45 1024.9
20260905165042 76 325 8.0 15.0 0.00 0.00 0.00 45 1025.0
20260905164604 76 360 6.0 13.0 0.00 0.00 0.00 46 1024.9
20260905164041 75 334 7.0 13.0 0.00 0.00 0.00 46 1025.0
20260905163542 75 355 8.0 13.0 0.00 0.00 0.00 46 1025.0
20260905163054 75 338 7.0 16.0 0.00 0.00 0.00 47 1025.0
20260905162542 75 345 8.0 16.0 0.00 0.00 0.00 47 1025.0
20260905162041 74 317 9.0 16.0 0.00 0.00 0.00 46 1025.0
20260905161551 74 284 9.0 16.0 0.00 0.00 0.00 47 1025.0
20260905161042 74 315 9.0 13.0 0.00 0.00 0.00 48 1024.9
20260905160542 73 352 7.0 13.0 0.00 0.00 0.00 49 1024.9
20260905160049 73 340 8.0 13.0 0.00 0.00 0.00 50 1024.9
20260905155541 73 317 6.0 11.0 0.00 0.00 0.00 51 1024.9
20260905155041 72 330 6.0 11.0 0.00 0.00 0.00 53 1024.9
20260905154555 72 360 6.0 12.0 0.00 0.00 0.00 54 1024.9
20260905154042 71 5 6.0 12.0 0.00 0.00 0.00 55 1024.9
20260905153542 71 319 7.0 12.0 0.00 0.00 0.00 56 1024.8
20260905153054 71 348 8.0 12.0 0.00 0.00 0.00 56 1024.8
20260905152542 71 350 7.0 12.0 0.00 0.00 0.00 57 1024.9
20260905152046 70 19 7.0 13.0 0.00 0.00 0.00 58 1024.9
20260905151607 70 5 9.0 13.0 0.00 0.00 0.00 59 1024.8
20260905151041 70 336 6.0 13.0 0.00 0.00 0.00 60 1024.8
20260905150541 69 355 6.0 13.0 0.00 0.00 0.00 60 1024.8
20260905150100 69 329 6.0 13.0 0.00 0.00 0.00 61 1024.9
20260905145541 68 340 8.0 13.0 0.00 0.00 0.00 62 1024.8
20260905145042 68 329 6.0 11.0 0.00 0.00 0.00 63 1024.8
20260905144554 67 331 7.0 11.0 0.00 0.00 0.00 64 1025.0
20260905144041 67 34 5.0 10.0 0.00 0.00 0.00 65 1025.0
20260905143545 67 334 5.0 10.0 0.00 0.00 0.00 66 1025.1
20260905143053 66 335 3.0 8.0 0.00 0.00 0.00 67 1025.1
20260905142545 66 336 4.0 8.0 0.00 0.00 0.00 68 1024.9
20260905142041 65 44 3.0 6.0 0.00 0.00 0.00 69 1024.9
20260905141603 65 67 3.0 10.0 0.00 0.00 0.00 70 1024.9
20260905141041 65 33 5.0 10.0 0.00 0.00 0.00 71 1024.9
20260905140542 64 43 6.0 10.0 0.00 0.00 0.00 72 1024.8
20260905140126 63 22 5.0 10.0 0.00 0.00 0.00 73 1024.8
20260905135542 63 44 6.0 9.0 0.00 0.00 0.00 74 1024.7
20260905135042 62 34 3.0 9.0 0.00 0.00 0.00 75 1024.7
20260905134601 62 51 5.0 11.0 0.00 0.00 0.00 76 1024.6
20260905134045 62 66 4.0 11.0 0.00 0.00 0.00 76 1024.6
20260905133541 61 41 4.0 9.0 0.00 0.00 0.00 77 1024.4
20260905133101 61 31 5.0 9.0 0.00 0.00 0.00 78 1024.5
20260905132541 61 46 4.0 9.0 0.00 0.00 0.00 78 1024.4
20260905132042 60 30 4.0 8.0 0.00 0.00 0.00 79 1024.4
20260905131601 60 23 3.0 7.0 0.00 0.00 0.00 79 1024.4
20260905131042 60 13 3.0 5.0 0.00 0.00 0.00 79 1024.4
20260905130544 60 340 2.0 5.0 0.00 0.00 0.00 79 1024.3
20260905130101 60 5 3.0 8.0 0.00 0.00 0.00 79 1024.2
20260905125541 60 5 3.0 8.0 0.00 0.01 0.00 78 1024.2
20260905125041 60 15 4.0 9.0 0.00 0.01 0.00 78 1024.0
20260905124552 60 344 5.0 9.0 0.00 0.01 0.00 77 1023.9
20260905124042 60 351 5.0 8.0 0.00 0.01 0.00 76 1024.0
20260905123542 61 351 4.0 6.0 0.00 0.01 0.00 74 1023.8
20260905123103 61 340 3.0 5.0 0.00 0.01 0.00 73 1023.8
20260905122542 61 38 3.0 5.0 0.00 0.01 0.00 72 1023.7
20260905122042 61 360 3.0 5.0 0.00 0.01 0.00 72 1023.6
20260905121551 62 360 3.0 7.0 0.00 0.01 0.00 71 1023.7
20260905121042 62 341 3.0 8.0 0.00 0.01 0.00 70 1023.7
20260905120543 62 28 5.0 8.0 0.00 0.01 0.00 71 1023.5
20260905120100 62 38 4.0 7.0 0.00 0.01 0.00 72 1023.5
20260905115544 62 65 4.0 7.0 0.00 0.01 0.00 72 1023.6
20260905115044 61 42 4.0 7.0 0.00 0.01 0.00 72 1023.7
20260905114548 61 67 3.0 8.0 0.00 0.01 0.00 73 1023.7
20260905114042 62 52 3.0 8.0 0.00 0.01 0.00 73 1023.7
20260905113542 62 57 3.0 6.0 0.00 0.01 0.00 73 1023.6
20260905113102 62 63 3.0 5.0 0.00 0.01 0.00 74 1023.6
20260905112542 62 57 2.0 5.0 0.00 0.01 0.00 75 1023.6
20260905112041 62 57 4.0 5.0 0.00 0.01 0.00 75 1023.7
20260905111554 62 49 3.0 6.0 0.00 0.01 0.00 74 1023.7
20260905111042 62 49 3.0 6.0 0.00 0.01 0.00 74 1023.7
20260905110541 63 37 4.0 7.0 0.00 0.01 0.00 73 1023.7
20260905110051 63 33 4.0 8.0 0.00 0.01 0.00 73 1023.7
20260905105541 63 38 3.0 8.0 0.00 0.01 0.00 71 1023.6
20260905105042 63 34 3.0 7.0 0.00 0.01 0.00 70 1023.7
20260905104606 63 43 3.0 8.0 0.00 0.01 0.00 70 1023.6
20260905104042 63 5 4.0 8.0 0.00 0.01 0.00 70 1023.6
20260905103542 63 17 3.0 5.0 0.00 0.01 0.00 69 1023.6
20260905103055 63 28 3.0 5.0 0.00 0.01 0.00 69 1023.7
20260905102542 63 28 3.0 6.0 0.00 0.01 0.00 69 1023.6
20260905102042 63 9 3.0 6.0 0.00 0.01 0.00 69 1023.6
20260905101554 62 43 3.0 5.0 0.00 0.01 0.00 70 1023.5
20260905101041 62 25 2.0 5.0 0.00 0.01 0.00 70 1023.6
20260905100541 62 58 2.0 5.0 0.00 0.01 0.00 70 1023.5
20260905100052 62 58 2.0 5.0 0.00 0.01 0.00 70 1023.5
20260905095541 62 58 2.0 4.0 0.00 0.01 0.00 70 1023.3
20260905095041 62 58 2.0 4.0 0.00 0.01 0.00 69 1023.3
20260905094557 62 59 2.0 4.0 0.00 0.01 0.00 69 1023.3
20260905094042 62 58 2.0 4.0 0.00 0.01 0.00 69 1023.4
20260905093542 62 58 2.0 6.0 0.00 0.01 0.00 69 1023.4
20260905093055 62 58 2.0 6.0 0.00 0.01 0.00 68 1023.4
20260905092543 62 50 3.0 6.0 0.00 0.01 0.00 68 1023.4
20260905092041 62 22 3.0 4.0 0.00 0.01 0.00 67 1023.4
20260905091551 62 66 2.0 4.0 0.00 0.01 0.00 65 1023.5
20260905091042 63 66 2.0 5.0 0.00 0.01 0.00 65 1023.6
20260905090541 63 66 2.0 5.0 0.00 0.01 0.00 65 1023.5
20260905090118 63 59 3.0 5.0 0.00 0.01 0.00 66 1023.5
20260905085545 63 42 3.0 5.0 0.00 0.01 0.00 66 1023.4
20260905085046 63 45 3.0 5.0 0.00 0.01 0.00 66 1023.4
20260905084613 62 27 3.0 6.0 0.00 0.01 0.00 66 1023.4
20260905084042 62 41 3.0 6.0 0.00 0.01 0.00 66 1023.3
20260905083542 62 98 1.0 4.0 0.00 0.01 0.00 66 1023.4
20260905083056 62 98 2.0 4.0 0.00 0.01 0.00 66 1023.3
20260905082542 62 98 2.0 4.0 0.00 0.01 0.00 66 1023.4
20260905082042 62 98 1.0 2.0 0.00 0.01 0.00 66 1023.5
20260905081549 62 98 1.0 3.0 0.00 0.01 0.00 66 1023.4
20260905081041 62 98 0.0 3.0 0.00 0.01 0.00 66 1023.5
20260905080541 62 98 1.0 2.0 0.00 0.01 0.00 66 1023.5
20260905080100 62 98 0.0 2.0 0.00 0.01 0.00 66 1023.5
20260905075541 62 98 0.0 3.0 0.00 0.01 0.00 66 1023.5
20260905075043 62 98 1.0 3.0 0.00 0.01 0.00 66 1023.5
20260905074550 62 98 1.0 2.0 0.00 0.01 0.00 66 1023.5
20260905074041 62 98 0.0 2.0 0.00 0.01 0.00 66 1023.6
20260905073542 62 98 0.0 3.0 0.00 0.01 0.00 66 1023.6
20260905073055 62 98 0.0 3.0 0.00 0.01 0.00 66 1023.6
20260905072541 62 98 1.0 3.0 0.00 0.01 0.00 65 1023.6
20260905072041 63 98 1.0 2.0 0.00 0.01 0.00 65 1023.5
20260905071550 63 98 0.0 3.0 0.00 0.01 0.00 65 1023.6
20260905071042 63 0 1.0 3.0 0.00 0.01 0.00 65 1023.6
20260905070541 63 98 2.0 3.0 0.00 0.01 0.00 64 1023.6
20260905070052 63 98 1.0 3.0 0.00 0.01 0.00 64 1023.6
20260905065544 63 98 1.0 3.0 0.00 0.01 0.00 64 1023.7
20260905065041 63 98 1.0 3.0 0.00 0.01 0.00 63 1023.6
20260905064551 63 98 1.0 3.0 0.00 0.01 0.00 63 1023.6
20260905064043 64 98 1.0 4.0 0.00 0.01 0.00 63 1023.5
20260905063542 64 98 2.0 4.0 0.00 0.01 0.00 63 1023.5
20260905063057 64 98 3.0 4.0 0.00 0.01 0.00 63 1023.7
20260905062542 64 98 2.0 4.0 0.00 0.01 0.00 62 1023.6
20260905062042 64 98 0.0 2.0 0.00 0.01 0.00 62 1023.5
20260905061555 65 98 0.0 2.0 0.00 0.01 0.00 61 1023.6
20260905061042 65 98 0.0 3.0 0.00 0.01 0.00 61 1023.6
20260905060541 65 98 1.0 4.0 0.00 0.01 0.00 61 1023.6
20260905060059 65 98 1.0 4.0 0.00 0.01 0.00 61 1023.6
20260905055542 65 98 1.0 4.0 0.00 0.01 0.01 60 1023.6
20260905055042 65 98 1.0 3.0 0.00 0.01 0.01 60 1023.5
20260905054550 65 0 0.0 3.0 0.00 0.01 0.01 60 1023.4
20260905054042 65 0 0.0 3.0 0.00 0.01 0.01 60 1023.5
20260905053542 66 0 0.0 3.0 0.00 0.01 0.01 60 1023.5
20260905053054 66 0 1.0 6.0 0.00 0.01 0.01 60 1023.6
20260905052544 66 105 2.0 6.0 0.00 0.01 0.01 60 1023.6
20260905052045 66 100 2.0 4.0 0.00 0.01 0.01 60 1023.5
20260905051559 66 108 1.0 6.0 0.00 0.01 0.01 60 1023.5
20260905051043 66 94 2.0 6.0 0.00 0.01 0.01 60 1023.5
20260905050543 66 89 2.0 6.0 0.00 0.01 0.01 60 1023.5
20260905050056 66 128 1.0 3.0 0.00 0.01 0.01 59 1023.6
20260905045542 66 134 1.0 3.0 0.00 0.01 0.01 59 1023.6
20260905045043 66 134 1.0 3.0 0.00 0.01 0.01 60 1023.6
20260905044603 66 134 1.0 4.0 0.00 0.01 0.01 60 1023.8
20260905044042 66 0 1.0 5.0 0.00 0.01 0.01 59 1023.8
20260905043542 66 134 2.0 7.0 0.00 0.01 0.01 60 1023.8
20260905043102 67 134 2.0 7.0 0.00 0.01 0.01 60 1023.9
20260905042543 67 134 3.0 7.0 0.00 0.01 0.01 60 1023.9
20260905042042 67 139 2.0 8.0 0.00 0.01 0.01 60 1023.9
20260905041559 67 132 3.0 8.0 0.00 0.01 0.01 60 1023.9
20260905041042 67 139 3.0 8.0 0.00 0.01 0.01 61 1024.0
20260905040542 67 136 3.0 8.0 0.00 0.01 0.01 62 1024.1
20260905040052 67 135 2.0 5.0 0.00 0.01 0.01 62 1024.2
20260905035542 67 130 3.0 5.0 0.00 0.01 0.01 63 1024.2
20260905035043 67 142 3.0 6.0 0.00 0.01 0.01 63 1024.3
20260905034559 67 150 2.0 8.0 0.00 0.01 0.01 63 1024.3
20260905034043 68 139 2.0 8.0 0.00 0.01 0.01 63 1024.4
20260905033542 68 138 2.0 7.0 0.00 0.01 0.01 63 1024.3
20260905033107 68 162 3.0 9.0 0.00 0.01 0.01 63 1024.3
20260905032542 68 166 4.0 9.0 0.00 0.01 0.01 63 1024.3
20260905032042 68 148 3.0 9.0 0.00 0.01 0.01 63 1024.3
20260905031552 68 138 3.0 9.0 0.00 0.01 0.01 63 1024.2
20260905031046 68 170 5.0 9.0 0.00 0.01 0.01 63 1024.2
20260905030542 68 142 4.0 8.0 0.00 0.01 0.01 62 1024.2
20260905025542 68 144 4.0 10.0 0.00 0.01 0.01 62 1024.1
20260905025044 68 157 4.0 10.0 0.00 0.01 0.01 62 1024.0
20260905024556 69 138 5.0 10.0 0.00 0.01 0.01 61 1023.8
20260905024043 69 129 5.0 13.0 0.00 0.01 0.01 61 1023.7
20260905023542 69 169 6.0 16.0 0.00 0.01 0.01 61 1023.7
20260905023054 69 193 7.0 16.0 0.00 0.01 0.01 61 1023.5
20260905022545 69 123 7.0 14.0 0.00 0.01 0.01 60 1023.5
20260905022042 69 136 8.0 14.0 0.00 0.01 0.01 60 1023.3
20260905021552 69 133 8.0 14.0 0.00 0.01 0.01 60 1023.2
20260905021041 69 123 7.0 16.0 0.00 0.01 0.01 59 1023.1
20260905020541 69 141 8.0 18.0 0.00 0.01 0.01 59 1023.1
20260905020052 69 158 9.0 18.0 0.00 0.01 0.01 59 1023.1
20260905015542 70 163 9.0 17.0 0.00 0.01 0.01 59 1023.1
20260905015042 70 107 9.0 16.0 0.00 0.01 0.01 58 1023.1
20260905014610 70 144 9.0 17.0 0.00 0.01 0.01 58 1023.1
20260905014042 70 146 10.0 17.0 0.00 0.01 0.01 58 1023.1
20260905013542 70 175 9.0 17.0 0.00 0.01 0.01 58 1023.1
20260905013117 70 132 9.0 26.0 0.00 0.01 0.01 57 1023.1
20260905012542 71 134 9.0 26.0 0.00 0.01 0.01 57 1023.1
20260905012042 71 160 10.0 23.0 0.00 0.01 0.01 57 1023.1
20260905011556 71 164 10.0 23.0 0.00 0.01 0.01 56 1023.1
20260905011041 72 167 8.0 27.0 0.00 0.01 0.01 55 1023.0
20260905010543 73 165 14.0 27.0 0.00 0.01 0.01 54 1023.1
20260905010052 74 156 13.0 27.0 0.00 0.01 0.01 51 1023.0
20260905005542 76 131 12.0 27.0 0.00 0.01 0.01 47 1022.8
20260905005042 78 134 9.0 19.0 0.00 0.01 0.01 42 1022.7
20260905004638 79 192 5.0 10.0 0.00 0.01 0.01 38 1022.3
20260905004042 79 197 4.0 10.0 0.00 0.01 0.01 38 1022.3
20260905003542 80 180 4.0 10.0 0.00 0.01 0.01 38 1022.2
20260905003055 80 160 5.0 10.0 0.00 0.01 0.01 37 1022.2
20260905002542 80 218 4.0 9.0 0.00 0.01 0.01 37 1022.2
20260905002045 80 201 3.0 9.0 0.00 0.01 0.01 36 1022.2
20260905001559 80 188 4.0 9.0 0.00 0.01 0.01 35 1022.1
20260905001042 81 221 4.0 9.0 0.00 0.01 0.01 35 1022.0
20260905000543 81 205 4.0 11.0 0.00 0.01 0.01 35 1022.0
20260905000056 81 228 5.0 11.0 0.00 0.01 0.01 35 1021.9
20260904235543 81 226 3.0 10.0 0.00 0.01 0.01 35 1021.9
20260904235042 81 197 5.0 10.0 0.00 0.01 0.01 35 1021.9
20260904234603 82 221 6.0 12.0 0.00 0.01 0.01 35 1021.8
20260904234042 82 181 6.0 13.0 0.00 0.01 0.01 35 1021.7
20260904233542 82 158 5.0 13.0 0.00 0.01 0.01 35 1021.7
20260904233055 83 204 5.0 11.0 0.00 0.01 0.01 35 1021.7
20260904232542 83 194 5.0 11.0 0.00 0.01 0.01 33 1021.7
20260904232046 83 175 4.0 11.0 0.00 0.01 0.01 33 1021.7
20260904231551 84 178 5.0 11.0 0.00 0.01 0.01 33 1021.7
20260904231042 84 183 4.0 8.0 0.00 0.01 0.01 32 1021.7
20260904230541 84 179 2.0 10.0 0.00 0.01 0.01 33 1021.6
20260904230052 85 202 5.0 11.0 0.00 0.01 0.01 32 1021.5
20260904225542 85 184 5.0 11.0 0.00 0.01 0.01 32 1021.5
20260904225046 86 161 4.0 11.0 0.00 0.01 0.01 31 1021.5
20260904224547 87 184 6.0 11.0 0.00 0.01 0.01 30 1021.6
20260904224043 88 181 5.0 11.0 0.00 0.01 0.01 29 1021.5
20260904223542 89 157 7.0 12.0 0.00 0.01 0.01 28 1021.5
20260904223056 89 256 4.0 12.0 0.00 0.01 0.01 27 1021.5
20260904222542 89 237 6.0 12.0 0.00 0.01 0.01 27 1021.5
20260904222041 89 134 6.0 13.0 0.00 0.01 0.01 29 1021.4
20260904221556 89 194 6.0 16.0 0.00 0.01 0.01 28 1021.5
20260904221042 89 230 6.0 16.0 0.00 0.01 0.01 28 1021.5
20260904220543 90 264 3.0 11.0 0.00 0.01 0.01 28 1021.5
20260904220052 90 294 5.0 13.0 0.00 0.01 0.01 27 1021.5
20260904215542 90 202 7.0 14.0 0.00 0.01 0.01 27 1021.7
20260904215042 91 259 5.0 14.0 0.00 0.01 0.01 27 1021.6
20260904214612 91 190 4.0 9.0 0.00 0.01 0.01 27 1021.7
20260904214042 91 220 1.0 9.0 0.00 0.01 0.01 27 1021.7
20260904213542 91 180 3.0 10.0 0.00 0.01 0.01 27 1021.8
20260904213056 91 221 3.0 10.0 0.00 0.01 0.01 27 1021.9
20260904212545 91 193 3.0 14.0 0.00 0.01 0.01 28 1022.0
20260904212042 91 290 7.0 14.0 0.00 0.01 0.01 27 1022.0
20260904211554 92 179 4.0 8.0 0.00 0.01 0.01 27 1022.0
20260904211041 91 229 2.0 5.0 0.00 0.01 0.01 28 1022.1
20260904210541 90 278 1.0 4.0 0.00 0.01 0.01 30 1022.1
20260904210059 89 261 0.0 5.0 0.00 0.01 0.01 30 1022.2
20260904205545 88 0 0.0 14.0 0.00 0.01 0.01 31 1022.3
20260904205042 87 308 2.0 14.0 0.00 0.01 0.01 31 1022.4
20260904204554 87 259 7.0 14.0 0.00 0.01 0.01 31 1022.5
20260904204046 88 252 4.0 9.0 0.00 0.01 0.01 32 1022.5
20260904203542 88 310 4.0 8.0 0.00 0.01 0.01 31 1022.5
20260904203053 88 340 1.0 11.0 0.00 0.01 0.01 31 1022.7
20260904202542 88 0 1.0 11.0 0.00 0.01 0.01 32 1022.7
20260904202042 88 244 6.0 11.0 0.00 0.01 0.01 31 1022.8
20260904201553 88 10 2.0 6.0 0.00 0.01 0.01 32 1022.7
20260904201043 88 245 2.0 9.0 0.00 0.01 0.01 32 1022.8
20260904200542 88 352 2.0 10.0 0.00 0.01 0.01 31 1022.9
20260904200117 88 311 3.0 11.0 0.00 0.01 0.01 32 1023.0
20260904195541 89 315 3.0 11.0 0.00 0.01 0.01 31 1023.1
20260904195042 89 319 3.0 8.0 0.00 0.01 0.01 31 1023.2
20260904194609 89 200 0.0 8.0 0.00 0.01 0.01 31 1023.4
20260904194042 88 104 3.0 9.0 0.00 0.01 0.01 33 1023.5
20260904193542 88 153 5.0 9.0 0.00 0.01 0.01 33 1023.5
20260904193052 88 104 4.0 9.0 0.00 0.01 0.01 34 1023.5
20260904192541 87 138 2.0 7.0 0.00 0.01 0.01 35 1023.6
20260904192046 86 116 3.0 7.0 0.00 0.01 0.01 35 1023.7
20260904191550 86 92 3.0 11.0 0.00 0.01 0.01 36 1023.7
20260904191042 85 109 3.0 11.0 0.00 0.01 0.01 37 1023.8
20260904190542 84 157 4.0 11.0 0.00 0.01 0.01 37 1023.8
20260904190057 84 142 3.0 11.0 0.00 0.01 0.01 39 1024.0
20260904185541 83 69 5.0 11.0 0.00 0.01 0.01 39 1024.0
20260904185041 82 167 3.0 9.0 0.00 0.01 0.01 41 1024.2
20260904184610 81 0 3.0 9.0 0.00 0.01 0.01 40 1024.3
20260904184043 80 143 2.0 9.0 0.00 0.01 0.01 42 1024.3
20260904183545 80 0 0.0 9.0 0.00 0.01 0.01 43 1024.3